Location: Amherst
(42.5000°N, 72.5000°W)
Time: 05:50:57
(UTC-04:00)

ISS - Pass Details

Date: 19 May 2018
Orbit: 402 x 407 km, 51.6° (Epoch: 27 May)

Event Time Altitude Azimuth Distance (km) Brightness Sun altitude
Exits shadow 01:07:45 18° 344° (NNW) 1,070 -1.0 -27.5°
Maximum altitude 01:08:01 18° 350° (N) 1,064 -1.0 -27.5°
Drops below altitude 10° 01:10:22 10° 37° (NE) 1,458 -0.3 -27.5°
Sets 01:12:54 0° 57° (ENE) 2,319 0.6 -27.4°
